map of KBR home
Great Circle Mapper logo
KBR - Airport
Location
City:  Kota Bharu, Kelantan, Malaysia
Name:Sultan Ismail Petra
ICAO / IATA:WMKC / KBR

Details
Type:Airport (Aerodrome, Airfield)
Use:Public/Civil
Latitude:610'01"N (6.166850)
Longitude:10217'35"E (102.293014)
Datum:WGS 1984
Elevation:16 ft (5 m)
Runways:1
Longest:6982 × 150 ft (2128 × 45.5 m), paved

Time
Time Zone:UTC+8
Local Time:

Weather
METAR:WMKC 301600Z 00000KT 8000 FEW022 BKN280 26/25 Q1010
TAF:WMKC 301700Z 3018/3118 23010KT 9999 FEW017CB SCT140 BKN280
TEMPO 3022/3102 4000 TSRA FEW010 FEW015CB SCT020

Related Locations
Nearby:
Farthest:CHH: 12440 mi / 20021 km
Chachapoyas, PE

Find:

   beyond  
but within

Other Information
Maps:
NOTAMs:
Links:
Sources:

  
flag of Malaysia   

Sectional Chart

Flight Planning
at skyvector.com

Satellite Image

Google Maps Satellite View

 

Copyright © 2004-2014 Karl L. Swartz. All rights reserved.
The Great Circle Mapper name and logo are trademarks of the Great Circle Mapper.
All other trademarks mentioned herein belong to their respective owners.
Please see credits for attibutions and further copyright information.

  Follow gcmap on Facebook Follow gcmap on Twitter

hCard Microformat

Geo Microformat